Location: Béaulencourt
(50.0796°N, 2.8795°E)
Time: 20:04:14
(UTC+00:00)

Cosmos 468 Rocket - Pass Details

Date: 20 January 2026
Orbit: 740 x 774 km, 74.0° (Epoch: 16 February)

Event Time Altitude Azimuth Distance (km) Brightness Sun altitude
Exits shadow 05:54:37 11° 334° (NNW) 2,200 6.0 -16.0°
Maximum altitude 05:59:34 80° 249° (WSW) 765 3.9 -15.3°
Drops below altitude 10° 06:04:43 10° 162° (SSE) 2,272 6.9 -14.5°
Sets 06:07:05 0° 162° (SSE) 3,198 7.7 -14.1°
